EST,Max TemperatureF,Mean TemperatureF,Min TemperatureF,Max Dew PointF,MeanDew PointF,Min DewpointF,Max Humidity, Mean Humidity, Min Humidity, Max Sea Level PressureIn, Mean Sea Level PressureIn, Min Sea Level PressureIn, Max VisibilityMiles, Mean VisibilityMiles, Min VisibilityMiles, Max Wind SpeedMPH, Mean Wind SpeedMPH, Max Gust SpeedMPH,PrecipitationIn, CloudCover, Events, WindDirDegrees
2014-1-1,83,78,73,74,70,66,94,78,49,30.20,30.14,30.10,8,7,6,113,11,,0.00,3,,120
2014-1-2,84,78,72,73,71,68,89,77,62,30.09,30.00,29.94,8,7,6,14,7,,0.04,2,Rain,161
2014-1-3,81,75,69,72,67,63,94,80,65,30.14,30.03,29.94,8,7,6,16,9,25,0.03,6,Rain,324
2014-1-4,82,75,68,73,68,63,94,79,65,30.15,30.11,30.07,9,7,6,13,10,22,0.00,6,Rain,76
2014-1-5,85,78,72,73,71,36,96,83,21,30.09,30.05,30.01,9,7,6,21,8,,0.00,5,,125
2014-1-6,88,79,70,76,72,68,100,84,65,30.09,30.04,30.01,8,6,4,8,2,,0.00,3,Fog-Rain,165
2014-1-7,75,70,64,73,66,61,100,90,78,30.23,30.14,30.05,8,5,3,22,11,36,0.35,7,Rain,21
2014-1-8,78,71,64,72,69,64,94,86,78,30.26,30.19,30.14,8,6,6,18,15,,0.03,7,Rain,66
2014-1-9,80,75,70,73,71,68,100,86,70,30.23,30.18,30.14,9,6,6,12,7,,0.02,5,Rain,87
2014-1-10,84,78,71,73,72,68,94,83,67,30.21,30.14,30.09,9,7,6,16,8,,0.00,5,Rain,111
2014-1-11,84,78,72,73,71,70,97,81,68,30.17,30.11,30.06,9,7,6,14,7,25,0.00,1,,154
2014-1-12,85,79,73,72,70,68,97,81,55,30.17,30.10,30.06,9,7,6,12,6,23,0.00,3,,254
2014-1-13,84,78,72,74,70,36,95,82,20,30.18,30.11,30.05,9,7,4,16,5,,0.00,3,Rain,107
2014-1-14,85,78,72,75,72,66,100,82,61,30.09,30.04,30.01,9,7,6,13,5,20,0.04,5,Rain,175
2014-1-15,86,79,72,75,71,61,100,83,65,30.03,29.97,29.92,9,7,6,17,6,32,0.35,4,Rain,211
2014-1-16,75,68,62,72,59,52,100,71,56,30.10,30.02,29.95,8,7,6,14,9,,0.16,6,Rain,310
2014-1-17,72,68,63,61,56,52,78,66,57,30.15,30.09,30.05,8,7,6,9,6,,0.00,5,,13
2014-1-18,77,71,65,59,56,52,78,61,47,30.19,30.14,30.09,9,7,6,12,7,,0.00,4,,343
2014-1-19,73,67,61,57,52,45,77,58,43,30.23,30.18,30.13,9,7,6,9,3,,0.00,2,,325
2014-1-20,77,67,57,57,52,48,82,61,41,30.22,30.15,30.08,9,7,6,7,3,,0.00,2,,331
2014-1-21,75,66,57,63,58,54,100,67,49,30.11,30.00,29.93,9,7,6,14,4,,0.01,3,,225
2014-1-22,71,68,64,64,57,48,83,65,46,30.17,30.02,29.91,8,7,6,17,12,,0.00,4,Rain,307
2014-1-23,74,64,55,61,56,50,92,69,50,30.25,30.20,30.15,9,7,6,9,4,,0.00,2,,49
2014-1-24,74,68,62,64,59,54,94,71,53,30.30,30.23,30.20,9,7,6,15,4,,0.00,4,,41
2014-1-25,78,71,64,65,61,59,94,73,54,30.20,30.13,30.06,9,7,6,12,5,,0.00,3,,88
2014-1-26,79,68,58,66,61,57,100,73,54,30.12,30.07,30.02,9,7,6,12,2,,0.00,3,,65
2014-1-27,81,70,58,73,67,63,100,83,69,30.07,30.02,29.97,9,7,6,7,2,,0.00,2,,39
2014-1-28,84,74,64,73,69,64,100,86,61,30.11,30.05,30.01,9,6,4,7,3,,0.00,1,Fog,94
2014-1-29,83,74,66,76,69,32,100,86,16,30.09,30.05,30.00,9,5,0,12,2,,0.00,2,Fog,154
2014-1-30,83,77,71,76,73,70,100,88,72,30.13,30.07,30.02,8,7,6,14,4,,0.00,1,,162
2014-1-31,83,77,71,75,72,68,98,81,52,30.14,30.08,30.03,9,7,6,14,7,,0.00,1,,138